Location: Bailen
(14.1842°N, 120.7958°E)
Time: 23:20:47
(UTC+00:00)

Yuri Rocket - Visible Passes

Search period start: 18 April 2026 00:00
Search period end: 28 April 2026 00:00
Orbit: 567 x 1898 km, 28.2° (Epoch: 18 April)

Date Brightness Start Highest point End Pass type
(mag) Time Alt. Az. Time Alt. Az. Time Alt. Az.
18 Apr 5.6 11:54:40 10° SW 11:55:45 11° SSW 11:56:13 11° SSW visible
22 Apr 6.6 21:08:39 10° SSW 21:18:16 34° SSE 21:28:24 10° E visible
23 Apr 7.0 19:07:46 10° SSE 19:09:21 10° SE 19:10:59 10° SE visible
23 Apr 6.4 20:58:22 10° SSW 21:08:05 38° SSE 21:18:33 10° E visible
24 Apr 6.9 18:56:44 11° SSE 18:59:22 12° SE 19:02:44 10° SE visible
24 Apr 6.2 20:48:09 10° SSW 20:57:52 41° SSE 21:08:37 10° E visible
25 Apr 6.8 18:47:44 13° SSE 18:49:22 13° SE 18:53:45 10° ESE visible
25 Apr 6.1 20:38:00 10° SW 20:47:39 45° SSE 20:58:38 10° E visible
26 Apr 6.7 18:38:45 15° SSE 18:39:21 15° SE 18:44:27 10° ESE visible
26 Apr 5.9 20:28:49 14° SW 20:37:25 49° SSE 20:48:35 10° ENE visible
27 Apr 6.7 18:29:43 16° SE 18:29:43 16° SE 18:35:00 10° ESE visible
27 Apr 5.7 20:19:47 18° SW 20:27:13 54° SSE 20:38:29 10° ENE visible
